マティチッチ彗星

C/2008 Q1 ( Maticic )

English version
Home page
Total 6,336 html files since Dec. 4, 1995
Updated on October 22, 2008

---------------------------------------------------------------------

・ プロフィール

発見日 2008年8月18日
発見光度 17.8等
発見者 Stanislav Maticic (Crni Vrh Observatory)

・ 写真集

・ 軌道要素

Epoch 2009 Jan. 9.0 TT = JDT 2454840.5
T 2008 Dec. 30.13908 TT                                 MPC
q   2.9591145            (2000.0)            P               Q
z  +0.0017020      Peri.  104.48221     -0.17175918     -0.97485565
 +/-0.0000231      Node     9.30792     -0.79516405     +0.05211640
e   0.9949635      Incl.  118.62665     +0.58156075     -0.21665720
From 490 observations 2008 Aug. 18-Oct. 19, mean residual 0".44.

・ 光度変化

        m1 = 10.0 + 5 logΔ + 10.0 log r

---------------------------------------------------------------------

軌道要素はM.P.E.C. 2008-U17に掲載されたものです。
光度グラフはComet for Windowsで作成したものです。

---------------------------------------------------------------------

Copyright(C) 1995-2008 Seiichi Yoshida (comet@aerith.net). All rights reserved.